This is the latest recevied weather packets stored in our database for station/object SV6DBG-10. If no packets are shown the sender has not sent any weather packets the latest 10 day(s).
| Time | Temp. | Humidity | Pressure | Rain* | Wind** | Luminosity | Snow |
|---|---|---|---|---|---|---|---|
| 1777613828 | 12.22° C | 52% | 1019.2 hPa | - | - | - | - |
| 1777612928 | 11.67° C | 56% | 1019.3 hPa | - | - | - | - |
| 1777612028 | 11.11° C | 58% | 1019.3 hPa | - | - | - | - |
| 1777611128 | 10.56° C | 64% | 1019.2 hPa | - | - | - | - |
| 1777610228 | 10.56° C | 65% | 1019 hPa | - | - | - | - |
| 1777609327 | 10.56° C | 68% | 1018.9 hPa | - | - | - | - |
| 1777608427 | 10° C | 71% | 1018.8 hPa | - | - | - | - |
| 1777607527 | 10° C | 72% | 1019 hPa | - | - | - | - |
| 1777606627 | 10° C | 71% | 1019 hPa | - | - | - | - |
| 1777605727 | 10.56° C | 71% | 1018.9 hPa | - | - | - | - |
| 1777604827 | 10.56° C | 72% | 1018.9 hPa | - | - | - | - |
| 1777603927 | 10.56° C | 73% | 1019 hPa | - | - | - | - |
| 1777603026 | 10.56° C | 73% | 1019 hPa | - | - | - | - |
| 1777602126 | 11.11° C | 73% | 1019 hPa | - | - | - | - |
| 1777601226 | 11.11° C | 73% | 1018.9 hPa | - | - | - | - |
| 1777600326 | 11.67° C | 76% | 1018.8 hPa | - | - | - | - |
| 1777599426 | 11.67° C | 78% | 1018.7 hPa | - | - | - | - |
| 1777598526 | 11.11° C | 79% | 1018.9 hPa | - | - | - | - |
| 1777597626 | 11.11° C | 80% | 1018.9 hPa | - | - | - | - |
| 1777596725 | 11.11° C | 79% | 1018.8 hPa | - | - | - | - |
| 1777595825 | 11.11° C | 79% | 1018.9 hPa | - | - | - | - |
| 1777594925 | 11.11° C | 81% | 1018.8 hPa | - | - | - | - |
| 1777594025 | 11.11° C | 81% | 1018.9 hPa | - | - | - | - |
| 1777593125 | 11.11° C | 80% | 1019 hPa | - | - | - | - |
| 1777592224 | 11.11° C | 79% | 1019.1 hPa | - | - | - | - |
* Rain since midnight (hover to see other rain measurements)
** Current wind speed in m/s (hover to see current wind gust speed)